Flag for Canada Weather past 2 weeks in Fredericton, New Brunswick, Canada

Now
46 °F

Overcast.


Feels Like: 41 °F
Forecast: N/A
Wind: 10 mph from Northeast

Location: Fredericton

Current Time: Apr 26, 2015 at 6:59:33 PM

Latest Report: Apr 26, 2015 at 6:00 PM


Visibility: 9 mi

Pressure: 29.58 "Hg

Humidity: 71%

Dew point: 37 °F

Location of FrederictonLocation

Historic Weather in Fredericton — Graph

°F

Fredericton temperature yesterday

Maximum temperature yesterday: 45 °F (at 6:00 PM)
Minimum temperature yesterday: 36 °F (at 12:00 AM)
Average temperature yesterday: 38 °F

Past Weeks' High & Low Weather Summary

 TemperatureHumidityPressure
High66 °F (Apr 13, 2:00 PM)100% (Apr 19, 5:51 AM)30.42 "Hg (Apr 19, 5:51 AM)
Low25 °F (Apr 20, 4:00 AM)19% (Apr 14, 5:00 PM)29.49 "Hg (Apr 24, 4:00 PM)
Average42 °F69%29.90 "Hg
* Reported Apr 11 5:00 PM — Apr 26 5:00 PM, Fredericton, Weather by CustomWeather, © 2015

Note: Actual official high and low records may vary slightly from our data, if they occured in-between our weather recording intervals... More about our weather records

Advertising

Fredericton weather history for previous 24 hours

 ConditionsComfort  
Time TempWeatherWind HumidityBarometerVisibility
5:00 PM
Sun, Apr 26
46 °FBroken clouds.7 mph76%29.58 "Hg9 mi
4:00 PM46 °FMostly cloudy.7 mph76%29.59 "Hg9 mi
3:00 PM48 °FMostly cloudy.13 mph71%29.59 "Hg9 mi
2:00 PM46 °FLight rain. Mostly cloudy.13 mph76%29.59 "Hg9 mi
1:59 PM46 °FLight rain. Mostly cloudy.13 mph76%29.59 "Hg9 mi
1:00 PM50 °FOvercast.6 mph54%29.58 "Hg9 mi
12:00 PM48 °FSunny.5 mph62%29.60 "Hg9 mi
11:00 AM45 °FScattered clouds.3 mph76%29.62 "Hg9 mi
10:57 AM45 °FScattered clouds.9 mph76%29.62 "Hg9 mi
10:00 AM43 °FPartly sunny.5 mph81%29.62 "Hg9 mi
9:00 AM39 °FScattered clouds.No wind87%29.62 "Hg9 mi
8:00 AM34 °FSunny.2 mph100%29.62 "Hg9 mi
7:00 AM28 °FClear.3 mph100%29.61 "Hg8 mi
6:57 AM28 °FClear.2 mph100%29.61 "Hg9 mi
6:00 AM30 °FIce fog.No wind100%29.60 "Hg1 mi
5:57 AM30 °FIce fog.No wind100%29.60 "Hg1 mi
5:00 AM32 °FOvercast.5 mph100%29.59 "Hg9 mi
4:00 AM34 °FOvercast.5 mph100%29.61 "Hg9 mi
3:00 AM32 °FOvercast.3 mph100%29.61 "Hg9 mi
2:00 AM32 °FPassing clouds.3 mph100%29.60 "Hg9 mi
1:00 AM36 °FMostly cloudy.No wind93%29.62 "Hg9 mi
12:00 AM36 °FOvercast.2 mph100%29.62 "Hg9 mi
11:00 PM
Sat, Apr 25
37 °FOvercast.3 mph93%29.63 "Hg9 mi
10:00 PM37 °FOvercast.3 mph93%29.64 "Hg9 mi
9:00 PM41 °FMore clouds than sun.3 mph87%29.64 "Hg9 mi
8:00 PM43 °FOvercast.3 mph76%29.62 "Hg9 mi
7:00 PM45 °FPartly sunny.No wind71%29.62 "Hg9 mi
6:00 PM45 °FMore clouds than sun.7 mph71%29.61 "Hg9 mi
Weather by CustomWeather, © 2015

See weather overviewHow to use our weather pages